Flag for U.S.A. Weather past 2 weeks in Kennebunk, Maine, U.S.A.

Now
64 °F

Sunny.


Feels Like: 64 °F
Forecast: 35 / 62 °F
Wind: 12 mph from Southwest

Location: Sanford Municipal


UV Index: 5 (Moderate)

Visibility: 10 mi


Pressure: 30.06 "Hg

Humidity: 11%

Dew point: 9 °F

Location of KennebunkLocation

Historic Weather in Kennebunk

°F

Kennebunk temperature yesterday

Maximum temperature yesterday: 57 °F (at 11:15 AM)
Minimum temperature yesterday: 27 °F (at 4:55 AM)
Average temperature yesterday: 42 °F

Past Weeks' High & Low Weather Summary

 TemperatureHumidityPressure
High79 °F (Apr 14, 12:35 PM)100% (Apr 10, 3:35 AM)30.83 "Hg (Apr 10, 3:35 AM)
Low18 °F (Apr 17, 5:15 AM)10% (Apr 15, 3:15 PM)29.28 "Hg (Apr 8, 5:55 PM)
Average44 °F37%30.09 "Hg
* Reported Apr 6 11:15 AM — Apr 21 11:35 AM, Kennebunk, Weather by CustomWeather, © 2014

Note: Actual official high and low records may vary slightly from our data, if they occured in-between our weather recording intervals... More about our weather records

Advertising

Historic Weather Conditions — Data for Previous 24 hours

 ConditionsComfort  
Time TempWeatherWind HumidityBarometerVisibility
11:35 AM
Apr 21
64 °FSunny.12 mph11%30.07 "Hg10 mi
10:55 AM61 °FSunny.10 mph10%30.10 "Hg10 mi
10:35 AM59 °FSunny.13 mph10%30.11 "Hg10 mi
10:15 AM57 °FSunny.7 mph10%30.12 "Hg10 mi
9:55 AM54 °FSunny.7 mph11%30.12 "Hg10 mi
9:35 AM52 °FSunny.7 mph11%30.13 "Hg10 mi
9:15 AM52 °FSunny.10 mph10%30.14 "Hg10 mi
8:55 AM48 °FSunny.13 mph11%30.14 "Hg10 mi
8:35 AM46 °FSunny.9 mph11%30.15 "Hg10 mi
8:15 AM43 °FSunny.8 mph11%30.16 "Hg10 mi
7:55 AM39 °FSunny.5 mph11%30.18 "Hg10 mi
7:35 AM37 °FSunny.6 mph12%30.18 "Hg10 mi
7:15 AM36 °FSunny.5 mph13%30.19 "Hg10 mi
6:55 AM34 °FSunny.No wind11%30.19 "Hg10 mi
6:35 AM32 °FClear.No wind11%30.19 "Hg10 mi
6:15 AM30 °FClear.7 mph12%30.18 "Hg10 mi
5:55 AM28 °FClear.3 mph12%30.19 "Hg10 mi
5:35 AM27 °FClear.3 mph11%30.19 "Hg10 mi
5:15 AM28 °FClear.No wind12%30.19 "Hg10 mi
4:55 AM27 °FClear.5 mph13%30.19 "Hg10 mi
4:35 AM25 °FClear.No wind12%30.20 "Hg10 mi
4:15 AM25 °FClear.3 mph12%30.20 "Hg10 mi
3:55 AM25 °FClear.No wind12%30.22 "Hg10 mi
3:35 AM25 °FClear.3 mph11%30.22 "Hg10 mi
3:15 AM25 °FClear.No wind12%30.23 "Hg10 mi
2:55 AM25 °FClear.No wind12%30.24 "Hg10 mi
2:35 AM27 °FClear.No wind11%30.24 "Hg10 mi
2:15 AM27 °FClear.5 mph11%30.25 "Hg10 mi
1:55 AM27 °FClear.3 mph11%30.26 "Hg10 mi
1:35 AM27 °FClear.3 mph11%30.27 "Hg10 mi
1:15 AM27 °FClear.No wind11%30.29 "Hg10 mi
12:55 AM28 °FClear.No wind12%30.29 "Hg10 mi
12:35 AM27 °FClear.3 mph13%30.31 "Hg10 mi
12:15 AM28 °FClear.3 mph12%30.32 "Hg10 mi
11:55 PM
Apr 20
30 °FClear.3 mph11%30.33 "Hg10 mi
11:35 PM30 °FClear.No wind12%30.34 "Hg10 mi
11:15 PM30 °FClear.3 mph12%30.34 "Hg10 mi
10:35 PM30 °FClear.3 mph12%30.35 "Hg10 mi
10:15 PM32 °FClear.No wind11%30.35 "Hg10 mi
9:55 PM34 °FClear.3 mph11%30.36 "Hg10 mi
9:35 PM36 °FClear.No wind11%30.37 "Hg10 mi
9:15 PM37 °FClear.3 mph12%30.36 "Hg10 mi
8:55 PM37 °FClear.5 mph12%30.37 "Hg10 mi
8:35 PM37 °FClear.6 mph12%30.37 "Hg10 mi
8:15 PM37 °FSunny.5 mph12%30.37 "Hg10 mi
7:55 PM39 °FSunny.3 mph12%30.38 "Hg10 mi
7:35 PM43 °FSunny.3 mph10%30.38 "Hg10 mi
7:15 PM43 °FSunny.5 mph11%30.38 "Hg10 mi
6:55 PM45 °FSunny.8 mph12%30.39 "Hg10 mi
6:35 PM46 °FSunny.7 mph11%30.38 "Hg10 mi
6:15 PM46 °FSunny.7 mph11%30.39 "Hg10 mi
5:55 PM48 °FSunny.9 mph11%30.40 "Hg10 mi
5:15 PM50 °FSunny.9 mph11%30.41 "Hg10 mi
4:55 PM50 °FSunny.8 mph11%30.41 "Hg10 mi
4:35 PM52 °FSunny.7 mph10%30.42 "Hg10 mi
4:15 PM52 °FSunny.10 mph11%30.42 "Hg10 mi
3:55 PM52 °FSunny.9 mph11%30.42 "Hg10 mi
3:35 PM54 °FSunny.10 mph11%30.43 "Hg10 mi
3:15 PM54 °FSunny.9 mph11%30.43 "Hg10 mi
2:55 PM55 °FSunny.8 mph11%30.43 "Hg10 mi
2:35 PM54 °FSunny.10 mph11%30.44 "Hg10 mi
2:15 PM54 °FSunny.12 mph12%30.45 "Hg10 mi
1:55 PM55 °FSunny.9 mph11%30.46 "Hg10 mi
1:35 PM55 °FSunny.9 mph11%30.46 "Hg10 mi
1:15 PM55 °FSunny.8 mph11%30.46 "Hg10 mi
12:55 PM55 °FSunny.9 mph11%30.47 "Hg10 mi
12:35 PM55 °FSunny.8 mph11%30.47 "Hg10 mi
12:15 PM57 °FSunny.12 mph10%30.47 "Hg10 mi
Weather by CustomWeather, © 2014

See weather overview